Location: Newark
(51.3318°N, 0.0053°E)
Time: 07:44:37
(UTC+00:00)

CAS-6 - Pass Details

Date: 07 July 2022
Orbit: 613 x 634 km, 97.9° (Epoch: 17 August)

Event Time Altitude Azimuth Distance (km) Brightness Sun altitude
Exits shadow 23:30:52 - 230° (SW) 2,108 ? -15.8°
Reaches altitude 10° 23:31:20 10° 235° (SW) 1,994 ? -15.8°
Maximum altitude 23:33:53 15° 271° (W) 1,674 ? -15.9°
Drops below altitude 10° 23:36:26 10° 308° (NW) 1,996 ? -15.9°
Sets 23:39:30 0° 331° (NNW) 2,905 ? -16.0°
